Flag for Norway Weather past 2 weeks in Mysen, Norway

Now
32 °F

Scattered clouds.


Feels Like: 32 °F
Forecast: 39 / 44 °F
Wind: 2 mph from Southeast

Location: Rygge


UV Index: 0 (Low)

Visibility: 31 mi


Pressure: 30.33 "Hg

Humidity: 88%

Dew point: 29 °F

Location of MysenLocation

Historic Weather in Mysen

°F

Mysen temperature yesterday

Maximum temperature yesterday: 52 °F (at 4:00 PM)
Minimum temperature yesterday: 39 °F (at 11:00 PM)
Average temperature yesterday: 47 °F

Past Weeks' High & Low Weather Summary

 TemperatureHumidityPressure
High57 °F (Apr 13, 4:00 PM)100% (Apr 6, 2:00 AM)30.34 "Hg (Apr 6, 2:00 AM)
Low26 °F (Apr 5, 5:00 AM)26% (Apr 15, 6:00 PM)29.38 "Hg (Apr 13, 6:00 AM)
Average42 °F76%29.87 "Hg
* Reported Apr 1 5:00 AM — Apr 16 4:00 AM, Mysen, Weather by CustomWeather, © 2014

Note: Actual official high and low records may vary slightly from our data, if they occured in-between our weather recording intervals... More about our weather records

Advertising

Historic Weather Conditions — Data for Previous 24 hours

 ConditionsComfort  
Time TempWeatherWind HumidityBarometerVisibility
4:00 AM
Apr 16
33 °FPassing clouds.3 mph86%30.34 "Hg31 mi
3:00 AM30 °FPassing clouds.1 mph93%30.34 "Hg31 mi
2:00 AM31 °FClear.1 mph93%30.34 "Hg31 mi
11:00 PM
Apr 15
39 °FClear.1 mph58%30.32 "Hg31 mi
10:00 PM39 °FClear.2 mph51%30.31 "Hg31 mi
9:00 PM42 °FClear.2 mph46%30.31 "Hg31 mi
8:00 PM48 °FSunny.2 mph31%30.29 "Hg31 mi
7:00 PM51 °FSunny.5 mph26%30.27 "Hg28 mi
6:00 PM52 °FSunny.7 mph26%30.26 "Hg28 mi
5:00 PM51 °FPassing clouds.7 mph27%30.24 "Hg28 mi
4:00 PM52 °FPartly sunny.7 mph27%30.23 "Hg25 mi
3:00 PM51 °FPartly sunny.6 mph27%30.23 "Hg25 mi
2:00 PM50 °FSunny.7 mph28%30.22 "Hg28 mi
1:00 PM49 °FSunny.8 mph29%30.21 "Hg22 mi
12:00 PM48 °FSunny.7 mph30%30.20 "Hg25 mi
11:00 AM46 °FSunny.10 mph32%30.18 "Hg22 mi
10:00 AM44 °FSunny.8 mph33%30.17 "Hg28 mi
9:00 AM42 °FSunny.8 mph36%30.15 "Hg28 mi
8:00 AM40 °FSunny.7 mph43%30.12 "Hg28 mi
Weather by CustomWeather, © 2014

See weather overview